ONEWEB-0051 (45155 NORAD) Tracking and Keplerian Element Data

This shows tracking and keplerian element data for the satellite.

Feedback or suggestion? Click here.




ElementValue
Catalog45155
NameONEWEB-0051
Epoch Orbit3916
Epoch Day293.91673611
Epoch Year2020
RAAN82.9211
Inclination87.5409
Eccentricity0.0023978
Argument of Perigee87.6684
Mean Anonmoly39.859
Mean Motion14.92400042
Decay Rate0.00010764
L11 45155U 20008AA 20293.91673611 .00010764 00000-0 10429-2 0 9996
L22 45155 87.5409 82.9211 0023978 87.6684 39.8590 14.92400042 39165

Live tracking and technical data element details for ONEWEB-0051 (NORAD 45155). ONEWEB-0051 can be tracked NOW for your location showing map with azimuth and elevation plus other details from your city location.

Track the satellite on the map from your city or location and see movement details for azimuth, elevation, latitude, longitude, range, height, and movement on the map or in text.







IsCatalogInMostPopularTable: catalog: 45155, numindb: 47
Update: records affected: 1



GetName: 45155 ONEWEB-0051

Hit Count: updated at: Tue, 20 Oct 2020 12:28:23 GMT